Regional Weather Roundup
Issued by NWS

Home | Current Version | Previous Version | Graphics & Text | Print | Product List | Glossary On
Versions: 1 2 3 4 5 6 7 8 9 10 11 12 13 14 15 16 17 18 19 20 21 22 23 24 25 26 27 28 29 30 31 32 33 34 35 36 37 38 39 40 41 42 43 44 45 46 47 48 49 50
000
ASUS43 KMKX 222200
RWRWI

WISCONSIN REGIONAL WEATHER ROUNDUP
NATIONAL WEATHER SERVICE MILWAUKEE/SULLIVAN WI
500 PM CDT WED OCT 22 2014

NOTE: "FAIR" INDICATES FEW OR NO CLOUDS BELOW 12,000 FEET WITH NO
SIGNIFICANT WEATHER AND/OR OBSTRUCTIONS TO VISIBILITY.

WIZ001-002-006>008-014>016-023>028-222300-
NORTHWEST WISCONSIN

CITY           SKY/WX    TMP DP  RH WIND       PRES   REMARKS
SUPERIOR ARPT  CLOUDY    60  39  46 S6        30.07F
ASHLAND        PTCLDY    58  31  35 S6        30.11F
HAYWARD        SUNNY     57  32  38 S15G21    30.11F
SIREN          MOSUNNY   58  36  43 S16G23    30.08F
CUMBERLAND     CLOUDY    54  34  47 SE13      30.12F
RICE LAKE      CLOUDY    55  35  45 SE17      30.14F
CHETEK         CLOUDY    56  37  48 SE8       30.14F
LADYSMITH      SUNNY     56  32  39 SE12G18   30.17F
EAU CLAIRE     NOT AVBL
MENOMONIE      PTSUNNY   58  34  40 SE15      30.14F
NEW RICHMOND   RAIN      56  37  49 SE16G23   30.10F
OSCEOLA        MOSUNNY   58  40  50 SE14G21   30.11F
$$

WIZ003>005-009-010-017-018-222300-
NORTH CENTRAL WISCONSIN

CITY           SKY/WX    TMP DP  RH WIND       PRES   REMARKS
MANITOWISH WTR CLEAR     54  27  34 S8        30.18F
ARBOR VITAE    PTCLDY    57  27  32 S10       30.20S
WOODRUFF       PTCLDY    57  27  32 S10       30.20S
RHINELANDER    PTCLDY    52  26  36 S7        30.21F
EAGLE RIVER    PTCLDY    54  22  28 S9        30.20F
LAND O LAKES   PTCLDY    53  26  35 S7        30.20F
PHILLIPS       CLEAR     55  30  38 SE10G18   30.16F
TOMAHAWK       CLEAR     54  29  39 CALM      30.21F
MEDFORD        CLEAR     53  32  43 SE13      30.20F
MERRILL        CLEAR     55  32  41 S5        30.22F
$$

WIZ029-030-035-036-043>047-222300-
CENTRAL WISCONSIN

CITY           SKY/WX    TMP DP  RH WIND       PRES   REMARKS
WAUSAU         CLEAR     53  33  46 SE10      30.22F
MOSINEE        NOT AVBL
MARSHFIELD     CLEAR     55  34  45 SE8       30.21F
STEVENS POINT  CLEAR     54  35  48 SE9       30.24F
WAUPACA        PTCLDY    58  38  47 E8        30.25F
WAUTOMA        NOT AVBL
WISC RAPIDS    CLEAR     56  34  43 SE7       30.24S
CAMP DOUGLAS   NOT AVBL
$$

WIZ011>013-019>022-031-037>040-048>050-222300-
NORTHEAST WISCONSIN

CITY           SKY/WX    TMP DP  RH WIND       PRES   REMARKS
ANTIGO         CLEAR     50  33  52 SE9       30.25S
SHAWANO        CLEAR     56  38  50 SE7       30.27S
OCONTO           N/A     49  38  66 SE7       30.29S
STURGEON BAY   CLEAR     43  34  70 SE7       30.30F
GREEN BAY      CLEAR     53  36  52 SE8       30.27F
MANITOWOC      NOT AVBL
APPLETON       PTCLDY    52  37  58 SE8       30.27F
CLINTONVILLE   CLEAR     52  36  54 S9        30.26F
OSHKOSH        CLEAR     54  40  59 E8        30.25F
$$

WIZ032>034-041-042-053>061-222300-
SOUTHWEST WISCONSIN

CITY           SKY/WX    TMP DP  RH WIND       PRES   REMARKS
LA CROSSE      SUNNY     60  37  42 S12       30.17F
SPARTA         SUNNY     59  35  39 S7        30.20F
VIROQUA        SUNNY     58  36  43 S9        30.20F
BOSCOBEL       SUNNY     60  36  40 S8        30.21F
PRAIRIE DU CHI SUNNY     59  36  42 SE9       30.20F
PLATTEVILLE    SUNNY     58  37  43 SE7       30.23F
$$

WIZ056-057-062-063-064-067-068-222300-
SOUTH CENTRAL WISCONSIN

CITY           SKY/WX    TMP DP  RH WIND       PRES   REMARKS
REEDSBURG      SUNNY     57  37  45 S7        30.22F
BARABOO/DELLS  SUNNY     57  37  46 SE9       30.23F
LONE ROCK      NOT AVBL
MINERAL POINT  SUNNY     59  34  38 SE6       30.23F
MADISON        MOSUNNY   58  35  42 S10       30.24F
MIDDLETON      SUNNY     60  32  35 S10       30.24F
WATERTOWN      CLEAR     56  38  49 SE6       30.25F
MONROE         SUNNY     57  36  44 SE10      30.24F
JANESVILLE     SUNNY     61  36  39 S8        30.24F
$$

WIZ051-052-058>065-066-070>072-222300-
SOUTHEAST WISCONSIN

CITY           SKY/WX    TMP DP  RH WIND       PRES   REMARKS
MILWAUKEE      PTCLDY    49  39  68 SE10      30.29F
WAUKESHA       CLEAR     50  39  66 E10       30.28F
MILWAUKEE/TIMM CLEAR     48  37  66 SE8       30.29F
RACINE         CLEAR     49  38  65 SE8       30.31F
BURLINGTON     CLEAR     55  36  49 SE7       30.27F
KENOSHA        CLEAR     50  40  68 SE9       30.29F
FOND DU LAC    CLEAR     55  38  52 S9        30.25F
SHEBOYGAN      CLEAR     48  37  65 SE8       30.29F
WEST BEND      CLEAR     50  37  62 SE8       30.28S
JUNEAU         CLEAR     55  38  53 SE7       30.27S
$$

LSZ147-162-222300-
LAKE SUPERIOR

STATION/POSITION TIME  TEMP    WIND        PRES    WAVE
                       AIR SEA DIR/SP/G            HT/PER
                 (UTC) (F)     (DEG/KT/KT) (MB)    (FT/S)
W MID LAKE BUOY  2050   46 46   80/ 10/ 12 1021.9F   1/ 4
DEVILS ISLAND    2100   48      90/ 14/ 16 1020.9F
PORT WING        2100   60     180/  8/ 12 1019.3F
SAXON HARBOR     2100   62     200/ 10/ 18 1020.3F
$$

LMZ867-665-643>646-222300-
LAKE MICHIGAN

STATION/POSITION TIME  TEMP    WIND        PRES    WAVE
                       AIR SEA DIR/SP/G            HT/PER
                 (UTC) (F)     (DEG/KT/KT) (MB)    (FT/S)
CHAMBERS ISLAND  2100   48      80/  5/  6 1026.4F
N MID LAKE BUOY  2050   42 52  120/  6/  8 1027.7F   1
NORTHPORT PIER   2100   44     130/  9/ 11 1026.8F
SISTER BAY       2128          130/ 10/ 13   N/A
KEWAUNEE LAKESHO 2100   45     130/  5/  8 1025.5F
SHEBOYGAN LAKESH 2100   47 50  160/ 11/ 12 1027.0F
PORT WASHINGTON  2100   50     140/  8/ 10 1026.8F
ATWATER BUOY     2100   49     140/ 10/ 12 1027.2F
MILWAUKEE LAKESH 2100   48     120/ 10/ 11   N/A
S MID LAKE BUOY  2050   47 55   10/  2/  4 1027.5F   1/ 4
KENOSHA   LAKESH 2100   53     130/  6/  8 1026.1F
$$

TC  - TEMPERATURE IN CELSIUS
VSB - VISIBILITY IN STATUTE MILES
WCI - WIND CHILL INDEX
HX  - HEAT INDEX




USA.gov is the U.S. government's official web portal to all federal, state and local government web resources and services.